Wind_Speed
27 27 26 26 26 27 26 23 21 20 19 19 17 16 17 16 15 14 13 13 13 13 13 13 13 13 14 14 13 12 12 13 13 14 14 14 15 16 17 18 18 19 20 20
27 27 26 26 27 26 26 24 22 21 21 20 18 18 17 16 16 15 14 13 13 14 14 14 14 14 14 14 14 13 13 14 14 15 15 15 15 15 17 18 18 18 19 20
26 26 27 28 27 27 25 24 23 22 21 20 19 18 17 17 16 16 15 15 14 14 14 15 15 14 15 15 15 15 15 15 15 15 16 16 16 17 17 17 18 19 19 20
25 27 28 26 26 26 25 24 23 23 22 20 20 19 18 17 17 17 17 17 16 16 15 15 15 15 15 15 16 16 16 15 15 16 16 17 17 17 18 18 19 19 20 21
27 28 28 28 26 26 25 25 23 22 21 21 20 20 20 18 18 18 18 17 18 17 17 17 16 16 16 17 17 17 17 17 17 17 17 17 18 19 19 20 21 21 21 21
28 27 28 28 26 25 25 25 24 23 22 21 20 21 20 19 19 19 19 18 18 18 18 18 17 17 17 17 17 17 17 16 17 18 18 18 18 18 18 19 20 21 22 22
28 28 27 28 27 26 26 25 24 23 22 22 22 22 21 21 20 20 20 19 19 19 18 18 18 17 17 17 18 18 18 17 17 18 19 18 18 18 19 19 19 21 22 22
29 28 28 28 27 28 27 25 24 23 23 23 22 22 22 21 21 21 20 20 20 20 20 19 19 18 18 18 19 18 18 18 18 18 19 19 19 20 21 21 21 21 22 21
31 30 28 27 27 27 28 27 26 25 24 23 23 23 22 22 22 22 21 21 21 21 21 21 20 20 20 20 20 20 20 20 20 20 20 21 21 22 23 23 23 23 23 24
30 29 26 25 25 25 26 27 27 26 25 24 23 22 22 22 22 22 21 21 21 21 21 22 21 21 22 21 21 21 21 21 21 21 22 22 23 24 24 25 25 26 26 27
29 28 27 25 24 25 26 27 28 27 25 24 24 23 22 22 22 22 22 22 22 21 21 21 22 22 22 22 22 23 23 23 23 23 23 23 24 25 26 26 26 28 29 28
29 28 27 26 25 25 26 26 26 26 25 24 23 23 23 23 23 22 22 22 22 22 21 22 22 22 22 22 23 23 24 24 23 23 24 24 25 25 26 27 27 28 29 29
28 28 27 26 25 25 24 25 26 26 25 24 23 23 23 23 22 22 22 22 22 22 22 22 22 21 21 22 22 23 24 24 24 24 24 25 26 26 27 27 28 28 29 29
27 27 27 27 26 24 24 24 24 25 24 23 23 22 23 22 22 22 22 21 21 21 22 22 22 21 21 21 21 22 22 22 23 23 23 24 25 25 26 26 27 28 28 29
27 26 26 26 25 24 24 24 24 23 23 22 22 22 22 21 21 20 20 20 20 20 20 20 21 21 21 21 21 21 21 21 21 21 22 23 24 24 25 25 26 27 27 27
27 26 26 27 26 25 23 23 23 22 21 21 21 20 20 20 20 19 19 18 18 19 19 19 19 20 20 20 20 20 20 20 20 20 20 21 22 23 24 24 25 25 26 27
26 25 25 25 24 23 23 22 21 20 20 20 20 20 20 19 19 18 18 17 16 17 17 17 17 17 18 18 19 19 19 19 20 21 21 22 22 23 23 24 25 26 26 27
24 23 22 22 23 22 22 21 20 20 20 19 19 19 19 17 16 16 15 14 14 15 15 15 15 16 16 16 16 17 18 19 20 21 21 22 23 24 24 25 26 26 27 29
22 21 21 20 21 21 20 20 20 20 20 19 19 19 17 16 15 15 14 13 14 14 14 15 15 16 16 16 17 18 18 19 20 21 22 22 23 25 26 26 27 28 29 30
21 21 20 20 20 19 19 19 18 18 18 17 17 16 16 15 14 13 13 13 14 14 14 15 15 16 16 17 17 18 18 19 20 21 22 23 24 25 26 27 28 28 29 30
20 20 20 20 18 18 18 17 17 16 16 16 15 15 14 13 13 12 12 13 14 14 14 15 15 16 17 17 18 19 20 20 21 22 23 24 25 26 27 28 29 30 30 30
20 20 19 18 17 16 17 17 17 17 16 15 15 14 13 13 12 12 13 13 14 14 15 16 16 17 17 18 19 20 21 21 22 23 24 25 26 27 28 29 29 30 30 31
19 18 17 16 16 15 15 15 15 14 13 13 13 13 12 12 12 12 12 13 14 14 15 15 16 17 18 19 19 20 21 22 24 25 25 26 27 28 28 28 29 29 29 30
17 17 17 16 16 14 14 13 13 13 12 12 11 11 11 11 12 12 13 13 14 14 15 16 17 18 19 20 21 22 23 24 25 26 26 27 27 28 27 27 28 28 28 28
16 16 16 15 14 13 13 13 12 12 11 11 11 11 12 12 13 13 13 14 15 16 17 18 19 20 21 21 22 23 24 25 26 27 27 27 27 27 27 27 27 27 27 27
15 15 15 15 14 13 13 12 12 12 12 12 12 12 12 12 13 13 14 15 16 17 19 19 20 21 21 22 23 24 25 25 26 26 27 27 26 26 26 26 26 26 26 26
14 14 15 14 14 13 13 12 12 12 12 12 12 12 12 13 14 15 16 16 17 19 20 20 21 22 23 23 24 25 25 25 26 26 26 25 24 24 24 24 24 24 24 25
Wind_Direction
210 214 218 219 219 219 221 221 224 226 228 231 235 236 236 238 243 249 255 258 260 262 261 260 261 260 258 258 260 264 260 254 251 247 246 246 248 249 247 246 246 245 243 245
213 215 218 219 219 219 221 221 222 223 226 229 233 235 236 238 242 247 252 258 260 259 259 260 261 260 258 259 260 262 263 257 251 249 249 250 250 253 252 251 247 244 245 246
214 215 218 220 219 220 222 221 221 223 226 227 231 234 236 240 242 243 250 256 260 261 259 261 260 258 256 258 259 259 261 258 253 251 251 250 251 253 255 253 248 245 246 246
214 216 218 219 220 220 221 219 218 220 222 223 228 231 235 240 245 247 252 257 261 263 262 261 262 258 258 259 260 260 260 257 254 254 253 251 251 253 253 251 249 248 248 248
215 218 221 221 217 217 218 219 218 219 220 222 227 231 236 242 247 249 252 257 261 263 264 264 263 261 260 260 259 260 259 257 255 253 254 254 254 254 254 251 249 249 248 248
216 218 221 222 218 217 220 221 220 220 221 225 229 233 237 242 247 250 254 257 260 263 264 264 264 263 261 259 259 260 259 257 254 251 251 252 254 254 255 252 252 251 250 248
216 218 222 221 218 217 220 221 221 222 223 226 231 237 241 245 248 252 254 257 259 260 262 263 263 261 260 260 262 262 258 257 255 253 251 251 253 254 254 253 253 254 252 250
217 218 222 222 221 221 223 224 224 224 226 230 234 239 242 246 248 251 253 256 258 259 260 261 261 260 260 260 262 264 260 257 257 255 254 254 254 255 256 256 255 254 253 251
220 220 222 223 225 226 226 225 224 224 227 232 236 239 243 246 248 250 254 257 258 258 260 260 260 259 259 260 262 262 260 258 257 256 256 257 256 257 258 258 257 257 257 255
221 222 222 223 224 225 224 223 223 226 228 231 235 238 242 244 246 249 253 256 257 258 259 258 258 259 259 260 262 262 261 260 259 259 259 259 260 259 258 258 258 259 260 259
218 217 218 218 220 221 221 221 222 225 229 231 233 237 240 244 247 250 253 256 259 260 259 258 258 259 258 260 261 261 261 262 262 262 262 261 261 261 260 260 260 260 261 262
214 213 214 215 217 219 221 221 223 225 227 229 231 236 241 246 248 250 254 257 259 260 260 259 259 260 260 258 258 259 260 262 263 262 261 262 263 264 263 263 263 262 262 262
209 211 213 214 217 219 218 218 221 223 225 228 233 237 241 244 246 249 253 257 257 258 259 259 258 261 264 264 261 261 262 263 264 264 263 263 264 265 264 264 265 264 263 263
208 210 213 214 216 219 219 219 220 220 223 227 232 237 241 244 247 250 253 256 257 258 260 259 260 260 263 265 265 265 265 265 266 266 266 266 267 266 265 265 266 267 266 266
205 207 208 209 213 215 216 219 219 220 224 229 234 237 240 244 246 249 253 255 257 259 259 259 259 260 261 264 265 264 264 263 266 268 268 266 267 267 268 268 268 270 270 270
201 203 205 208 209 211 214 216 218 222 226 229 232 235 239 243 245 248 252 255 258 259 258 259 259 259 261 264 265 264 264 263 264 266 268 269 270 270 271 272 273 273 273 273
195 198 200 202 203 206 211 214 217 221 225 228 232 235 238 242 244 247 252 257 257 258 259 261 261 261 262 264 264 264 265 266 265 267 269 271 272 273 275 277 277 278 278 278
191 195 198 201 203 205 209 213 218 221 224 226 230 232 235 238 242 246 250 255 257 258 258 259 261 263 265 268 269 269 270 269 269 270 270 271 273 276 279 280 280 280 281 280
192 196 199 199 201 206 209 212 217 219 220 222 224 225 229 234 239 243 247 252 255 258 259 261 266 269 268 269 272 273 274 274 274 274 274 276 277 278 279 280 281 281 281 281
195 197 200 202 204 206 208 211 211 212 215 217 220 223 227 233 238 243 249 254 258 261 265 268 270 271 271 274 276 278 279 279 279 279 279 280 281 282 282 283 284 283 283 283
197 199 200 202 202 204 205 206 209 212 215 218 221 225 229 234 239 246 252 257 261 263 267 270 272 273 275 277 280 282 283 284 284 285 284 284 284 285 285 285 286 285 285 285
199 199 198 198 199 201 204 208 210 212 214 220 224 229 234 239 244 251 256 261 266 270 273 275 277 279 280 282 284 287 287 287 288 289 289 288 287 287 288 287 287 287 287 287
194 195 195 195 197 200 203 206 209 211 217 223 228 234 240 245 251 257 261 267 273 277 281 282 284 285 285 286 288 289 290 291 291 291 291 291 290 290 290 289 289 289 290 290
192 192 192 194 196 200 203 206 211 216 220 226 233 239 243 250 257 263 268 272 277 281 285 287 288 288 288 289 290 291 293 294 295 296 296 296 296 294 293 292 292 291 291 290
189 189 190 194 198 201 204 208 215 221 226 232 238 245 251 257 265 270 274 278 281 285 288 291 291 293 294 294 294 295 295 296 297 297 297 297 296 295 295 294 293 292 292 292
187 189 193 197 202 204 207 211 218 226 234 240 247 254 260 266 271 275 280 284 286 288 291 293 294 295 296 297 297 297 298 298 299 299 298 297 295 294 294 294 294 294 294 294
188 191 196 202 206 209 212 217 225 232 240 247 256 263 269 273 276 282 286 289 291 294 294 295 295 296 297 297 298 299 299 300 299 298 297 296 295 295 295 295 295 295 295 295
Height
5772 5776 5780 5785 5789 5793 5798 5803 5808 5811 5813 5815 5816 5818 5820 5821 5822 5823 5824 5825 5825 5826 5826 5826 5826 5826 5827 5827 5828 5828 5828 5828 5829 5830 5831 5832 5833 5834 5835 5836 5837 5839 5840 5841
5766 5771 5775 5780 5784 5789 5793 5798 5802 5806 5808 5810 5812 5814 5816 5817 5819 5820 5821 5822 5822 5822 5822 5822 5823 5823 5823 5824 5824 5824 5824 5825 5825 5826 5827 5828 5829 5830 5831 5832 5833 5834 5835 5836
5762 5767 5770 5774 5779 5784 5788 5793 5797 5801 5804 5806 5808 5810 5812 5813 5815 5816 5817 5818 5818 5818 5819 5819 5819 5819 5820 5820 5820 5820 5821 5821 5821 5822 5823 5823 5825 5826 5826 5827 5827 5829 5830 5831
5758 5762 5766 5772 5774 5779 5783 5787 5791 5795 5798 5801 5803 5805 5807 5809 5810 5812 5813 5813 5814 5814 5814 5815 5815 5815 5816 5816 5816 5816 5816 5817 5817 5818 5818 5819 5820 5821 5821 5822 5823 5824 5825 5826
5753 5756 5761 5766 5770 5774 5779 5783 5787 5790 5793 5796 5799 5801 5802 5804 5806 5807 5808 5809 5809 5809 5810 5810 5810 5811 5811 5811 5812 5812 5812 5812 5813 5813 5814 5815 5815 5816 5816 5817 5818 5819 5820 5821
5747 5752 5756 5761 5765 5770 5775 5778 5782 5785 5789 5792 5794 5796 5798 5799 5801 5802 5803 5804 5804 5805 5805 5805 5806 5806 5806 5807 5807 5807 5807 5808 5808 5809 5809 5810 5811 5811 5812 5812 5813 5814 5815 5816
5741 5746 5751 5754 5760 5765 5770 5774 5777 5780 5783 5787 5789 5792 5794 5794 5796 5797 5798 5799 5799 5800 5800 5800 5801 5801 5801 5802 5802 5802 5802 5803 5803 5804 5804 5805 5806 5806 5807 5807 5808 5809 5810 5811
5736 5741 5747 5749 5754 5759 5763 5768 5771 5775 5778 5781 5784 5786 5788 5789 5791 5792 5793 5793 5794 5794 5795 5795 5796 5796 5796 5797 5797 5797 5797 5798 5798 5798 5799 5800 5801 5802 5802 5803 5803 5804 5805 5805
5730 5736 5739 5743 5748 5752 5757 5761 5766 5769 5773 5776 5778 5780 5782 5784 5785 5786 5787 5788 5789 5789 5790 5790 5790 5790 5791 5791 5791 5792 5792 5792 5793 5793 5794 5795 5795 5796 5797 5797 5798 5798 5799 5799
5724 5728 5733 5738 5742 5746 5750 5755 5759 5763 5767 5770 5772 5775 5777 5778 5780 5781 5782 5782 5783 5784 5784 5784 5784 5784 5785 5785 5786 5786 5787 5787 5787 5788 5788 5789 5789 5790 5791 5791 5792 5792 5793 5793
5718 5723 5727 5732 5736 5740 5745 5749 5753 5757 5761 5764 5766 5769 5771 5772 5774 5775 5776 5777 5777 5778 5778 5778 5778 5778 5779 5779 5780 5781 5781 5781 5782 5782 5782 5783 5783 5783 5784 5784 5785 5785 5786 5786
5712 5718 5722 5727 5731 5735 5739 5743 5748 5751 5755 5758 5760 5763 5765 5766 5768 5769 5770 5771 5771 5772 5772 5772 5772 5772 5772 5773 5773 5774 5774 5775 5775 5776 5776 5776 5776 5776 5776 5777 5777 5777 5778 5778
5707 5712 5717 5721 5726 5729 5733 5738 5742 5745 5749 5752 5754 5757 5759 5760 5762 5763 5764 5765 5765 5765 5766 5766 5766 5766 5766 5767 5767 5767 5768 5768 5768 5769 5769 5769 5769 5769 5769 5770 5769 5770 5770 5770
5702 5707 5711 5716 5720 5724 5728 5732 5736 5739 5743 5746 5749 5751 5753 5755 5756 5757 5758 5759 5759 5759 5760 5760 5760 5760 5760 5761 5761 5761 5761 5761 5761 5761 5762 5762 5762 5762 5762 5762 5762 5762 5762 5762
5698 5703 5707 5712 5716 5720 5724 5727 5731 5734 5737 5740 5743 5745 5747 5749 5750 5751 5752 5753 5753 5753 5753 5753 5754 5754 5754 5755 5755 5754 5755 5755 5755 5755 5755 5755 5755 5755 5754 5754 5754 5754 5754 5753
5694 5699 5703 5708 5712 5716 5719 5723 5726 5730 5733 5735 5738 5740 5742 5743 5745 5746 5747 5747 5747 5748 5748 5748 5748 5748 5748 5748 5749 5749 5749 5749 5749 5749 5749 5749 5748 5748 5748 5747 5747 5747 5746 5745
5691 5695 5700 5704 5707 5711 5715 5719 5722 5725 5728 5731 5733 5735 5736 5738 5739 5740 5741 5742 5742 5742 5743 5743 5743 5743 5743 5743 5743 5743 5743 5743 5743 5743 5743 5743 5742 5742 5741 5740 5739 5739 5738 5737
5688 5693 5697 5700 5704 5708 5711 5715 5718 5721 5723 5726 5728 5730 5732 5733 5734 5735 5736 5737 5737 5738 5738 5738 5738 5738 5738 5738 5738 5738 5737 5737 5737 5737 5736 5736 5736 5735 5734 5733 5732 5731 5730 5729
5686 5690 5694 5697 5701 5704 5708 5711 5714 5717 5719 5721 5723 5725 5727 5729 5730 5731 5732 5733 5733 5734 5734 5734 5734 5734 5733 5733 5733 5732 5732 5731 5731 5731 5730 5729 5729 5728 5727 5726 5724 5723 5722 5720
5684 5688 5691 5695 5698 5702 5705 5708 5710 5713 5715 5718 5720 5722 5723 5725 5726 5727 5728 5729 5729 5729 5729 5729 5729 5729 5728 5728 5728 5727 5726 5725 5725 5724 5723 5723 5721 5720 5719 5717 5716 5714 5712 5711
5682 5685 5689 5692 5696 5699 5702 5705 5707 5710 5712 5715 5717 5718 5720 5721 5723 5723 5724 5724 5725 5725 5725 5725 5724 5724 5723 5723 5722 5721 5720 5719 5718 5718 5717 5715 5714 5712 5711 5709 5707 5705 5703 5701
5680 5684 5687 5690 5693 5696 5699 5702 5705 5707 5710 5711 5713 5715 5717 5718 5719 5719 5720 5720 5720 5720 5720 5720 5719 5718 5718 5717 5716 5715 5714 5713 5712 5711 5709 5708 5706 5704 5702 5700 5698 5696 5693 5691
5679 5682 5685 5688 5692 5695 5697 5700 5702 5705 5707 5709 5711 5712 5713 5714 5715 5715 5716 5716 5716 5715 5715 5714 5713 5713 5712 5711 5710 5709 5708 5706 5705 5703 5701 5699 5697 5696 5693 5691 5689 5686 5684 5681
5677 5680 5684 5687 5690 5693 5696 5698 5700 5703 5704 5706 5708 5709 5710 5710 5711 5711 5711 5711 5711 5710 5710 5709 5708 5707 5706 5705 5704 5702 5701 5700 5698 5696 5693 5691 5689 5687 5684 5682 5680 5677 5675 5672
5676 5679 5682 5686 5689 5691 5694 5696 5698 5700 5702 5703 5704 5705 5706 5706 5707 5706 5706 5706 5706 5705 5704 5703 5702 5701 5700 5698 5697 5695 5694 5692 5690 5687 5685 5683 5681 5678 5676 5673 5671 5669 5666 5664
5675 5678 5681 5684 5687 5689 5692 5694 5696 5697 5699 5700 5701 5701 5702 5702 5702 5702 5702 5701 5701 5700 5699 5697 5696 5694 5693 5691 5689 5688 5686 5684 5681 5679 5677 5674 5672 5669 5667 5665 5663 5660 5658 5655
5674 5677 5680 5682 5685 5687 5689 5691 5693 5694 5696 5697 5697 5698 5698 5698 5698 5697 5697 5696 5695 5694 5692 5691 5689 5688 5686 5684 5682 5680 5678 5675 5673 5671 5668 5666 5663 5661 5659 5657 5655 5652 5650 5647